Broomfield, CO

5:55 AM MST on January 16, 2018 (GMT -0700)
Jeffco

Weather History for KBJC - April, 2014

Change the Weather History Date:

Friday, April 18, 2014

  Actual Average Record
Temperature  
Mean Temperature 58 °F -  
Max Temperature 75 °F 56 °F 80 °F (1987)
Min Temperature 41 °F 35 °F 15 °F (1987)
Degree Days  
Heating Degree Days 7    
Growing Degree Days 8 (Base 50)    
Moisture  
Dew Point 28 °F    
Average Humidity 42    
Maximum Humidity 66    
Minimum Humidity 15    
Precipitation  
Precipitation 0.00 in - - ()
Sea Level Pressure  
Sea Level Pressure 29.97 in    
Wind  
Wind Speed 6 mph (SW)    
Max Wind Speed 17 mph    
Max Gust Speed 46 mph    
Visibility 10 miles    
Events      
Averages and records for this station are not official NWS values.
T = Trace of Precipitation, MM = Missing Value Source: NWS Daily Summary

Daily Weather History Graph

Daily Weather History Graph

Search for Another Location

Airport or City:

Trip Planner

Search our weather history database for the weather conditions in past years. The results will help you decide how hot, cold, wet, or windy it might be!

Date:

Astronomy

Apr. 18, 2014 Rise Set
Actual Time 6:18 AM MDT 7:41 PM MDT
Civil Twilight 5:50 AM MDT 8:10 PM MDT
Nautical Twilight 5:16 AM MDT 8:44 PM MDT
Astronomical Twilight 4:40 AM MDT 9:20 PM MDT
Moon 11:29 PM MDT (4/18) 8:42 AM MDT (4/18)
Length of Visible Light 14h 20m
Length of Day
13h 23m
Waning Gibbous, 86% of the Moon is Illuminated
Apr 18
Waning Gibbous
Apr 22
Last Quarter
Apr 29
New
May 6
First Quarter
May 14
Full

Hourly Weather History & Observations

Time (MDT) Temp. Windchill Dew Point Humidity Pressure Visibility Wind Dir Wind Speed Gust Speed Precip Events Conditions
12:15 AM 44.6 °F 40.2 °F 33.8 °F 66% 30.02 in 10.0 mi WSW 8.1 mph - N/A   Clear
12:35 AM 42.8 °F 39.3 °F 32.0 °F 66% 30.01 in 10.0 mi SW 5.8 mph - N/A   Clear
12:55 AM 42.8 °F - 32.0 °F 66% 30.02 in 10.0 mi Calm Calm - N/A   Clear
1:15 AM 42.8 °F 40.1 °F 32.0 °F 66% 30.02 in 10.0 mi SSW 4.6 mph - N/A   Clear
1:34 AM 42.8 °F 40.1 °F 32.0 °F 66% 30.01 in 10.0 mi South 4.6 mph - N/A   Clear
1:55 AM 42.8 °F 40.1 °F 32.0 °F 66% 30.01 in 10.0 mi SSW 4.6 mph - N/A   Clear
2:15 AM 42.8 °F 38.6 °F 32.0 °F 66% 30.01 in 10.0 mi SW 6.9 mph - N/A   Clear
2:35 AM 44.6 °F 40.7 °F 30.2 °F 57% 30.00 in 10.0 mi WSW 6.9 mph - N/A   Clear
2:55 AM 42.8 °F 38.0 °F 30.2 °F 61% 30.00 in 10.0 mi WSW 8.1 mph - N/A   Clear
3:15 AM 42.8 °F 38.6 °F 28.4 °F 57% 30.00 in 10.0 mi WSW 6.9 mph - N/A   Clear
3:35 AM 44.6 °F - 28.4 °F 53% 30.00 in 10.0 mi Calm Calm - N/A   Clear
3:55 AM 44.6 °F 41.4 °F 28.4 °F 53% 29.99 in 10.0 mi WSW 5.8 mph - N/A   Clear
4:15 AM 46.4 °F 42.9 °F 26.6 °F 46% 29.99 in 10.0 mi WSW 6.9 mph - N/A   Clear
4:35 AM 42.8 °F - 28.4 °F 57% 29.99 in 10.0 mi Calm Calm - N/A   Clear
4:54 AM 46.4 °F - 26.6 °F 46% 30.00 in 10.0 mi Calm Calm - N/A   Clear
5:15 AM 46.4 °F 44.3 °F 26.6 °F 46% 29.99 in 10.0 mi South 4.6 mph - N/A   Clear
5:34 AM 44.6 °F 42.2 °F 26.6 °F 49% 30.00 in 10.0 mi South 4.6 mph - N/A   Clear
5:50 AM 42.8 °F 41.1 °F 26.6 °F 53% 29.99 in 40.0 mi South 3.5 mph - N/A   Mostly Cloudy
5:54 AM 42.8 °F 41.1 °F 28.4 °F 57% 29.99 in 10.0 mi SSW 3.5 mph - N/A   Clear
6:53 AM 41.0 °F 39.0 °F 28.4 °F 61% 29.99 in 70.0 mi Variable 3.5 mph - N/A   Mostly Cloudy
7:53 AM 50.0 °F - 30.2 °F 47% 30.01 in 70.0 mi Variable 4.6 mph - N/A   Mostly Cloudy
8:46 AM 53.6 °F - 28.4 °F 38% 30.01 in 70.0 mi Calm Calm - N/A   Mostly Cloudy
9:53 AM 62.6 °F - 28.4 °F 27% 30.00 in 70.0 mi Variable 4.6 mph - N/A   Mostly Cloudy
10:46 AM 68.0 °F - 26.6 °F 21% 30.00 in 70.0 mi SE 9.2 mph - N/A   Mostly Cloudy
11:46 AM 71.6 °F - 26.6 °F 19% 29.98 in 70.0 mi ESE 9.2 mph - N/A   Mostly Cloudy
12:46 PM 73.4 °F - 24.8 °F 16% 29.96 in 70.0 mi ENE 6.9 mph - N/A   Mostly Cloudy
1:45 PM 75.2 °F - 26.6 °F 17% 29.94 in 70.0 mi NE 9.2 mph - N/A   Scattered Clouds
2:47 PM 75.2 °F - 24.8 °F 15% 29.91 in 70.0 mi NNE 4.6 mph - N/A   Scattered Clouds
3:47 PM 75.2 °F - 24.8 °F 15% 29.88 in 70.0 mi NNE 5.8 mph - N/A   Scattered Clouds
4:45 PM 73.4 °F - 24.8 °F 16% 29.87 in 30.0 mi North 15.0 mph - N/A   Mostly Cloudy
5:15 PM 71.6 °F - 24.8 °F 17% 29.88 in 50.0 mi ESE 17.3 mph 46.0 mph N/A   Mostly Cloudy
5:45 PM 71.6 °F - 28.4 °F 20% 29.89 in 30.0 mi ESE 10.4 mph 16.1 mph N/A   Overcast
6:45 PM 71.6 °F - 26.6 °F 19% 29.88 in 30.0 mi Variable 5.8 mph - N/A   Overcast
7:45 PM 66.2 °F - 30.2 °F 26% 29.89 in 30.0 mi West 11.5 mph 17.3 mph N/A   Mostly Cloudy
8:55 PM 62.6 °F - 30.2 °F 30% 29.92 in 30.0 mi WSW 6.9 mph - N/A   Mostly Cloudy
9:47 PM 62.6 °F - 28.4 °F 27% 29.92 in 30.0 mi WSW 8.1 mph - N/A   Mostly Cloudy
11:14 PM 57.2 °F - 30.2 °F 36% 29.92 in 10.0 mi West 9.2 mph - N/A   Clear
11:35 PM 59.0 °F - 28.4 °F 31% 29.92 in 10.0 mi West 4.6 mph - N/A   Clear
11:54 PM 59.0 °F - 26.6 °F 29% 29.92 in 10.0 mi West 6.9 mph - N/A   Clear